Location: Newark
(40.9908°N, 0.0353°W)
Time: 16:54:50
(UTC+00:00)

N. Korean satellite - Visible Passes

Search period start: 15 October 2019 00:00
Search period end: 25 October 2019 00:00
Orbit: 455 x 508 km, 97.2° (Epoch: 14 October)

Date Brightness Start Highest point End Pass type
(mag) Time Alt. Az. Time Alt. Az. Time Alt. Az.
15 Oct 8.9 05:23:43 10° NE 05:26:54 30° E 05:30:07 10° SSE visible
16 Oct 10.1 04:59:22 10° ENE 05:01:30 15° E 05:03:37 10° SE visible
17 Oct 10.4 18:17:21 10° WSW 18:18:26 11° W 18:19:30 10° WNW visible
18 Oct 7.6 05:40:57 10° NNE 05:44:28 52° E 05:48:02 10° S visible
18 Oct 9.4 17:50:10 10° SSW 17:52:56 23° W 17:55:46 10° NW visible
19 Oct 9.3 05:16:06 10° NE 05:19:06 24° E 05:22:08 10° SSE visible
20 Oct 10.3 04:52:06 10° ENE 04:53:38 12° E 04:55:12 10° ESE visible
21 Oct 10.1 18:08:39 10° SW 18:10:32 14° W 18:12:26 10° WNW visible
22 Oct 8.2 05:33:11 10° NNE 05:36:39 41° E 05:40:08 10° S visible
22 Oct 8.9 17:42:03 10° SSW 17:45:04 29° W 17:48:08 10° NW visible
23 Oct 9.7 05:08:29 10° NE 05:11:15 20° E 05:14:02 10° SE visible
